STARLINK-33800, 63576

Orbit data source: Space-Track

STARLINK-33800, 63576 is a payload satellite owned by SpaceX/Seattle (US) in LEO that was launched on Mon, 14 Apr 2025 UTC via an FALCON 9 launch vehicle from the Air Force Eastern Test Range (AFETR). Payload-class satellites include a variety of spacecraft equipped with specific instruments for various scientific and technological missions. These include communications satellites like Starlink; space stations such as the ISS; scientific satellites like the Hubble; Earth observation satellites from companies like Planet Labs, Umbra, and HawkEye 360; GPS; miniature CubeSats for education and research; and military/defense satellites.

Loading next visibility...
Identifier
63576, 2025-076H
Orbit
LEO
Country
Flag of USUS
Related business
Manufacturer
SpaceX/Seattle
Mission
Operational Commercial Communications
Bus & Motor
STARLINK V2MO, Unknown motor
Mass
575 kg wet, ~530 kg dry
Launch date (UTC)
2025-04-14 (7 months ago)
Launch vehicle
FALCON 9
Launch site
Air Force Eastern Test Range (AFETR)
Object type
Payload
Rocket body
Debris
Shape & HBR
Box + 2 Pan, 17.7 m
Radar Cross Section
36.964 m², Large (>1 m²)

Expand to show TLE details & history
Last TLE update: 1 day ago

TLE from 1 day ago
0 STARLINK-33800
1 63576U 25076H   25301.48502254  .00032773  00000-0  11942-2 0  9999
2 63576  43.0007 348.1292 0001062 268.3427  91.7303 15.27607785 31615
Epoch: 2025-10-28T11:38Z
TLE epoch observation values (Epoch: 2025-10-28T11:38:25.947Z)
Latitude
-0.00002°
Longitude
136.44923°
Altitude
482.763 km
Speed
7.626 km/s
True Right ascension
23h 12m 31s
True Declination
0° 00' 00"
Sunlit
Object was in full shadow at epoch
Visualization orbit readout
Latitude
Unknown
Longitude
Unknown
Altitude
Unknown
Speed
Unknown
Apparent Right ascension
Unknown
Apparent Declination
Unknown
Sunlit
N/A
Visualization observer readout
Local Sidereal Time
15:36:23
Azimuth
Unknown
Elevation
Unknown
Doppler factor
Unknown
Orbital elements
Apogee altitude
485.64 km
Perigee altitude
484.182 km
Semi-major axis
6,863.048 km
Eccentricity
0.00011
Inclination
43.0007°
RAAN
348.1292°
Arg. of periapsis
268.3427°
True anomaly
91.74246°
Mean anomaly
91.7303°
Eccentric anomaly
91.73638°
Mean motion
3.8174 °/min
Orbital period
94.31 mins
BSTAR
0.0011942
Loading maneuver chart data...
Computing Atmospheric mass density...
Loading historical data...
Loading historical data...
Loading historical data...
Loading historical data...
Loading historical data...
Loading historical data...
Loading historical data...

Documentation

Showing up to 5 results
|